Mount Pleasant, SC

5:23 AM EST on November 18, 2017 (GMT -0500)
Mount Pleasant

Weather History for KLRO - February, 2013

Change the Weather History Date:

Friday, February 22, 2013

  Actual Average (KCHS) Record (KCHS)
Temperature  
Mean Temperature 55 °F -  
Max Temperature 62 °F 63 °F 82 °F (1991)
Min Temperature 48 °F 43 °F 25 °F (1947)
Degree Days  
Heating Degree Days 10    
Growing Degree Days 5 (Base 50)    
Moisture  
Dew Point 51 °F    
Average Humidity 90    
Maximum Humidity 100    
Minimum Humidity 71    
Precipitation  
Precipitation 0.41 in - - ()
Sea Level Pressure  
Sea Level Pressure 30.13 in    
Wind  
Wind Speed 4 mph (ENE)    
Max Wind Speed 12 mph    
Max Gust Speed 24 mph    
Visibility 6 miles    
Events Fog , Rain    
Averages and records for this station are not official NWS values.
T = Trace of Precipitation, MM = Missing Value Source: NWS Daily Summary

Daily Weather History Graph

Daily Weather History Graph

Search for Another Location

Airport or City:

Trip Planner

Search our weather history database for the weather conditions in past years. The results will help you decide how hot, cold, wet, or windy it might be!

Date:

Astronomy

Feb. 22, 2013 Rise Set
Actual Time 6:54 AM EST 6:10 PM EST
Civil Twilight 6:29 AM EST 6:35 PM EST
Nautical Twilight 6:01 AM EST 7:04 PM EST
Astronomical Twilight 5:32 AM EST 7:33 PM EST
Moon 3:26 PM EST (2/22) 4:32 AM EST (2/22)
Length of Visible Light 12h 05m
Length of Day
11h 15m
Waxing Gibbous, 90% of the Moon is Illuminated
Feb 22
Waxing Gibbous
Feb 25
Full
Mar 4
Last Quarter
Mar 11
New
Mar 19
First Quarter

Hourly Weather History & Observations

Time (EST) Temp. Dew Point Humidity Pressure Visibility Wind Dir Wind Speed Gust Speed Precip Events Conditions
12:15 AM 48.2 °F 46.4 °F 93% 30.17 in 10.0 mi Calm Calm - N/A   Clear
12:35 AM 48.2 °F 48.2 °F 100% 30.17 in 10.0 mi Calm Calm - N/A   Clear
12:55 AM 48.2 °F 46.4 °F 93% 30.17 in 10.0 mi Calm Calm - N/A   Clear
1:15 AM 48.2 °F 46.4 °F 93% 30.17 in 10.0 mi Calm Calm - N/A   Clear
1:35 AM 48.2 °F 46.4 °F 93% 30.16 in 10.0 mi Calm Calm - N/A   Clear
2:15 AM 48.2 °F 46.4 °F 93% 30.17 in 10.0 mi Calm Calm - N/A   Scattered Clouds
2:55 AM 51.8 °F 46.4 °F 82% 30.17 in 10.0 mi Calm Calm - N/A   Mostly Cloudy
3:15 AM 51.8 °F 46.4 °F 82% 30.17 in 10.0 mi NE 5.8 mph - N/A   Overcast
3:35 AM 51.8 °F 46.4 °F 82% 30.16 in 10.0 mi NNE 4.6 mph - N/A   Overcast
3:55 AM 53.6 °F 44.6 °F 72% 30.17 in 10.0 mi NE 5.8 mph - N/A   Overcast
4:15 AM 53.6 °F 44.6 °F 72% 30.16 in 10.0 mi NE 5.8 mph - N/A   Overcast
4:35 AM 53.6 °F 44.6 °F 72% 30.16 in 10.0 mi NE 6.9 mph - N/A   Overcast
5:15 AM 53.6 °F 44.6 °F 72% 30.16 in 10.0 mi ENE 6.9 mph 18.4 mph N/A   Overcast
5:35 AM 53.6 °F 44.6 °F 72% 30.18 in 10.0 mi NE 5.8 mph - N/A   Overcast
5:55 AM 53.6 °F 44.6 °F 72% 30.18 in 10.0 mi NE 9.2 mph - N/A   Overcast
6:15 AM 53.6 °F 44.6 °F 72% 30.18 in 10.0 mi NE 10.4 mph 21.9 mph N/A   Overcast
6:35 AM 51.8 °F 44.6 °F 76% 30.19 in 10.0 mi NE 11.5 mph 24.2 mph N/A   Overcast
6:55 AM 51.8 °F 42.8 °F 71% 30.19 in 10.0 mi NE 10.4 mph 19.6 mph N/A   Overcast
7:15 AM 51.8 °F 42.8 °F 71% 30.20 in 10.0 mi ENE 9.2 mph 23.0 mph N/A   Overcast
7:35 AM 51.8 °F 42.8 °F 71% 30.20 in 8.0 mi ENE 9.2 mph 24.2 mph N/A   Overcast
8:15 AM 51.8 °F 44.6 °F 76% 30.20 in 8.0 mi ENE 10.4 mph 17.3 mph N/A   Scattered Clouds
8:35 AM 51.8 °F 44.6 °F 76% 30.20 in 7.0 mi ENE 10.4 mph 21.9 mph N/A   Clear
9:15 AM 53.6 °F 46.4 °F 77% 30.21 in 8.0 mi ENE 4.6 mph 16.1 mph N/A   Scattered Clouds
9:35 AM 53.6 °F 46.4 °F 77% 30.20 in 8.0 mi ENE 9.2 mph 17.3 mph N/A   Mostly Cloudy
9:55 AM 53.6 °F 46.4 °F 77% 30.19 in 8.0 mi ENE 6.9 mph - N/A   Mostly Cloudy
10:15 AM 53.6 °F 46.4 °F 77% 30.20 in 8.0 mi ENE 8.1 mph - N/A   Overcast
10:35 AM 53.6 °F 48.2 °F 82% 30.19 in 8.0 mi NE 4.6 mph 17.3 mph N/A   Overcast
10:55 AM 53.6 °F 48.2 °F 82% 30.19 in 7.0 mi ENE 6.9 mph - N/A   Overcast
11:15 AM 53.6 °F 48.2 °F 82% 30.19 in 7.0 mi ENE 6.9 mph - N/A   Overcast
11:35 AM 53.6 °F 50.0 °F 88% 30.19 in 5.0 mi East 6.9 mph - N/A Rain Light Rain
11:55 AM 53.6 °F 51.8 °F 94% 30.17 in 1.8 mi East 5.8 mph - 0.05 in Rain Light Rain
12:15 PM 55.4 °F 53.6 °F 94% 30.16 in 1.8 mi East 5.8 mph - 0.01 in Rain Rain
12:35 PM 55.4 °F 55.4 °F 100% 30.17 in 0.8 mi ENE 3.5 mph - 0.15 in Rain Heavy Rain
1:15 PM 55.4 °F 55.4 °F 100% 30.13 in 1.0 mi East 3.5 mph - 0.04 in Rain Rain
1:35 PM 57.2 °F 55.4 °F 94% 30.12 in 1.0 mi ESE 5.8 mph - 0.11 in Rain Rain
1:55 PM 57.2 °F 57.2 °F 100% 30.08 in 1.2 mi SE 10.4 mph 16.1 mph 0.19 in Rain Light Rain
2:15 PM 60.8 °F 60.8 °F 100% 30.06 in 2.0 mi ESE 10.4 mph 17.3 mph 0.01 in Rain Light Rain
2:35 PM 60.8 °F 60.8 °F 100% 30.11 in 3.0 mi North 5.8 mph - 0.01 in   Light Drizzle
2:55 PM 60.8 °F 60.8 °F 100% 30.08 in 5.0 mi SE 6.9 mph - 0.02 in   Overcast
3:15 PM 62.6 °F 60.8 °F 94% 30.09 in 5.0 mi SE 6.9 mph - N/A   Overcast
3:35 PM 62.6 °F 60.8 °F 94% 30.09 in 3.0 mi SE 4.6 mph - N/A   Overcast
3:55 PM 62.6 °F 60.8 °F 94% 30.09 in 3.0 mi SSE 5.8 mph - N/A   Overcast
4:15 PM 62.6 °F 62.6 °F 100% 30.08 in 4.0 mi SE 6.9 mph - N/A   Overcast
4:35 PM 62.6 °F 62.6 °F 100% 30.07 in 5.0 mi SE 4.6 mph - N/A   Overcast
4:55 PM 62.6 °F 62.6 °F 100% 30.07 in 4.0 mi SE 4.6 mph - N/A   Overcast
5:15 PM 62.6 °F 62.6 °F 100% 30.07 in 4.0 mi SE 4.6 mph - N/A   Overcast
5:35 PM 62.6 °F 62.6 °F 100% 30.07 in 3.0 mi Calm Calm - N/A   Overcast
6:15 PM 62.6 °F 62.6 °F 100% 30.07 in 4.0 mi Calm Calm - N/A   Overcast
6:35 PM 60.8 °F 59.0 °F 94% 30.07 in 3.0 mi North 5.8 mph - N/A   Overcast
7:15 PM 57.2 °F 55.4 °F 94% 30.08 in 3.0 mi North 8.1 mph - N/A   Overcast
7:35 PM 55.4 °F 55.4 °F 100% 30.08 in 3.0 mi NNE 3.5 mph - N/A   Overcast
7:55 PM 55.4 °F 55.4 °F 100% 30.08 in 3.0 mi North 5.8 mph - N/A   Overcast
8:15 PM 53.6 °F 53.6 °F 100% 30.08 in 2.5 mi NE 4.6 mph - N/A   Overcast
8:35 PM 53.6 °F 53.6 °F 100% 30.09 in 2.5 mi Calm Calm - N/A   Overcast
8:55 PM 53.6 °F 53.6 °F 100% 30.08 in 3.0 mi North 4.6 mph - N/A   Overcast
9:15 PM 53.6 °F 53.6 °F 100% 30.09 in 2.0 mi North 6.9 mph - N/A   Overcast
9:35 PM 53.6 °F 53.6 °F 100% 30.08 in 1.5 mi NNE 4.6 mph - N/A   Overcast
9:55 PM 51.8 °F 51.8 °F 100% 30.09 in 1.2 mi North 4.6 mph - N/A   Overcast
10:15 PM 51.8 °F 51.8 °F 100% 30.09 in 1.0 mi NNW 4.6 mph - N/A   Overcast
10:35 PM 51.8 °F 51.8 °F 100% 30.08 in 0.8 mi North 5.8 mph - N/A   Overcast
11:15 PM 50.0 °F 50.0 °F 100% 30.08 in 0.5 mi North 4.6 mph - N/A Fog Fog
11:35 PM 50.0 °F 50.0 °F 100% 30.08 in 0.5 mi North 5.8 mph - N/A Fog Fog
11:55 PM 48.2 °F 48.2 °F 100% 30.07 in 0.5 mi NNW 4.6 mph - N/A Fog Fog